This is the latest recevied weather packets stored in our database for station/object SO5BO-13. If no packets are shown the sender has not sent any weather packets the latest 10 day(s).
| Time | Temp. | Humidity | Pressure | Rain* | Wind** | Luminosity | Snow |
|---|---|---|---|---|---|---|---|
| 1788427362 | 22.22° C | 64% | 1019.4 hPa | 0 mm | - | 482 W/m² | - |
| 1788427062 | 22.22° C | 65% | 1019.3 hPa | 0 mm | - | 482 W/m² | - |
| 1788426762 | 22.22° C | 65% | 1019.4 hPa | 0 mm | - | 475 W/m² | - |
| 1788426462 | 21.67° C | 66% | 1019.4 hPa | 0 mm | - | 471 W/m² | - |
| 1788426162 | 21.67° C | 66% | 1019.3 hPa | 0 mm | - | 471 W/m² | - |
| 1788425862 | 21.67° C | 68% | 1019.5 hPa | 0 mm | - | 464 W/m² | - |
| 1788425562 | 21.11° C | 70% | 1019.5 hPa | 0 mm | - | 454 W/m² | - |
| 1788425277 | 21.11° C | 70% | 1019.6 hPa | 0 mm | - | 450 W/m² | - |
| 1788424961 | 20.56° C | 71% | 1019.6 hPa | 0 mm | - | 448 W/m² | - |
| 1788424661 | 20.56° C | 73% | 1019.7 hPa | 0 mm | - | 438 W/m² | - |
| 1788424362 | 20.56° C | 74% | 1019.7 hPa | 0 mm | - | 430 W/m² | - |
| 1788424062 | 20° C | 74% | 1019.5 hPa | 0 mm | - | 427 W/m² | - |
| 1788423762 | 20° C | 76% | 1019.6 hPa | 0 mm | - | 419 W/m² | - |
| 1788423461 | 19.44° C | 77% | 1019.6 hPa | 0 mm | - | 413 W/m² | - |
| 1788423162 | 19.44° C | 78% | 1019.7 hPa | 0 mm | - | 403 W/m² | - |
| 1788422862 | 19.44° C | 79% | 1019.7 hPa | 0 mm | - | 395 W/m² | - |
| 1788422562 | 19.44° C | 79% | 1019.4 hPa | 0 mm | - | 387 W/m² | - |
| 1788422262 | 18.89° C | 80% | 1019.5 hPa | 0 mm | - | 383 W/m² | - |
| 1788421962 | 18.89° C | 80% | 1019.3 hPa | 0 mm | - | 373 W/m² | - |
| 1788421662 | 18.33° C | 81% | 1019.5 hPa | 0 mm | - | 362 W/m² | - |
| 1788421362 | 18.33° C | 81% | 1019.3 hPa | 0 mm | - | 352 W/m² | - |
| 1788421062 | 18.33° C | 82% | 1019.6 hPa | 0 mm | - | 339 W/m² | - |
| 1788420762 | 17.78° C | 82% | 1019.4 hPa | 0 mm | - | 329 W/m² | - |
| 1788420462 | 17.78° C | 83% | 1019.3 hPa | 0 mm | - | 323 W/m² | - |
| 1788420162 | 17.78° C | 84% | 1019.2 hPa | 0 mm | - | 315 W/m² | - |
* Rain latest hour (hover to see other rain measurements)
** Current wind speed in m/s (hover to see current wind gust speed)